[[{"header":{"parameterUnit":"m.s-1","parameterCategory":1,"la1":30.2991,"la2":30.254,"lo1":-89.0895,"lo2":-89.0444,"dy":0.0017,"dx":0.0017,"nx":28,"ny":28,"refTime":"2024-11-26T09:00:00:Z","depth":0,"parameterNumber":2,"parameterNumberName":"U-component_of_WINDS"},"data":[0,0,0,0,0,0,0,0,0,0,0,0,0,0,0,0,0,0,0,0,0,0,0,0,0,0,0,0,0,0,0,0,0,0,0,0,0,0,0,0,0,0,0,0,0,0,0,0,0,0,0,0,0,0,0,0,0,0,-0.361,-0.3609,0,-0.3496,-0.3495,-0.3494,-0.344,-0.3441,-0.3441,-0.3441,-0.3323,-0.332,-0.3317,0,0,0,0,0,0,0,0,0,0,0,0,0,-0.3781,-0.3778,-0.361,-0.3609,-0.3608,-0.3497,-0.3495,-0.3494,-0.344,-0.3441,-0.3441,-0.3441,-0.3324,-0.3321,-0.3317,0,0,0,0,0,0,0,0,0,0,0,0,0,-0.3691,-0.3777,-0.3611,-0.3568,-0.3563,-0.3497,-0.3495,-0.3493,-0.344,-0.3441,-0.3441,-0.3441,-0.3326,-0.3321,-0.3316,-0.3285,0,0,-0.3302,-0.33,0,0,0,0,0,0,0,0,-0.3696,-0.3685,-0.3575,-0.3571,-0.3565,-0.3483,-0.3512,-0.3423,-0.344,-0.3487,-0.3441,-0.3441,-0.3376,-0.3367,-0.3346,-0.3279,-0.3274,-0.3301,-0.3298,-0.3296,-0.3295,0,0,0,0,0,0,0,-0.3702,-0.3689,-0.3565,-0.3574,-0.3567,-0.3554,-0.3541,-0.3495,-0.3432,-0.3483,-0.3479,-0.3466,-0.3373,-0.335,-0.3343,-0.3272,-0.3301,-0.3297,-0.3294,-0.3292,-0.3173,-0.3173,0,0,0,0,0,0,-0.3716,-0.3695,-0.3569,-0.3562,-0.3632,-0.3551,-0.3537,-0.3509,-0.3433,-0.3421,-0.3466,-0.3464,-0.3359,-0.3348,-0.3338,-0.3295,-0.3296,-0.3292,-0.3289,-0.3174,-0.3173,-0.3173,0,0,0,0,0,0,-0.372,-0.3705,-0.3573,-0.3627,-0.3609,-0.3548,-0.3517,-0.3507,-0.3484,-0.342,-0.3408,-0.3454,-0.3358,-0.3345,-0.3298,-0.3291,-0.329,-0.3285,-0.3174,-0.3173,-0.3173,-0.321,0,0,0,0,0,0,-0.3725,-0.3707,-0.3694,-0.3627,-0.3607,-0.3536,-0.3517,-0.3504,-0.3476,-0.3472,-0.3406,-0.3395,-0.3357,-0.3306,-0.3293,-0.3284,-0.3282,-0.3174,-0.3174,-0.3173,-0.321,-0.3211,-0.3213,0,0,0,0,0,-0.3731,-0.3709,-0.3694,-0.3679,-0.359,-0.3535,-0.3524,-0.3481,-0.3475,-0.3462,-0.3421,-0.3397,-0.3294,-0.3301,-0.3287,-0.3276,-0.3174,-0.3174,-0.3173,-0.3209,-0.3211,-0.3213,0,0,0,0,0,0,-0.3777,-0.37,-0.3682,-0.3638,-0.3594,-0.3527,-0.3508,-0.3485,-0.3441,-0.3439,-0.3388,-0.3374,-0.3331,-0.3299,-0.3309,-0.3241,-0.3232,-0.3228,-0.3264,-0.3265,-0.3267,-0.3275,-0.3278,0,0,0,0,0,-0.3782,-0.3744,-0.3679,-0.3646,-0.3625,-0.3571,-0.3545,-0.3516,-0.3468,-0.3449,-0.3405,-0.3359,-0.3316,-0.3289,-0.3246,-0.3205,-0.3189,-0.319,-0.3192,-0.3194,-0.3191,-0.3166,-0.3166,-0.3171,-0.3171,-0.3171,0,0,-0.3791,-0.3745,-0.3724,-0.3654,-0.3616,-0.3578,-0.3555,-0.3516,-0.3487,-0.3443,-0.3396,-0.3362,-0.3308,-0.3264,-0.3242,-0.3235,-0.3186,-0.3193,-0.3195,-0.3191,-0.3166,-0.3165,-0.3165,-0.317,-0.317,-0.317,0,0,-0.379,-0.3751,-0.3719,-0.3682,-0.3625,-0.3589,-0.3582,-0.3518,-0.3494,-0.3446,-0.3412,-0.3377,-0.3305,-0.3267,-0.3238,-0.3223,-0.3199,-0.321,-0.3218,-0.3195,-0.3194,-0.3194,-0.3188,-0.3186,-0.3208,-0.3208,-0.3208,0,-0.3809,-0.375,-0.3706,-0.3668,-0.3638,-0.3597,-0.3565,-0.3531,-0.3463,-0.3443,-0.3437,-0.3345,-0.3305,-0.3251,-0.3248,-0.3226,-0.3215,-0.3217,-0.3198,-0.3197,-0.3196,-0.3189,-0.3187,-0.321,-0.3209,-0.3209,-0.3209,0,-0.3776,-0.3736,-0.3718,-0.3653,-0.3621,-0.3587,-0.3537,-0.351,-0.3484,-0.3448,-0.34,-0.3351,-0.3297,-0.3283,-0.3257,-0.3225,-0.3223,-0.3208,-0.3197,-0.3198,-0.3191,-0.3188,-0.3212,-0.3211,-0.3211,-0.3211,0,0,-0.38,-0.3711,-0.3705,-0.3675,-0.361,-0.3578,-0.3541,-0.3489,-0.3467,-0.3421,-0.3389,-0.3329,-0.3315,-0.3282,-0.3252,-0.3231,-0.3221,-0.3219,-0.3217,-0.3221,-0.3183,-0.3194,-0.3192,-0.3205,-0.3205,-0.3204,-0.3187,0,-0.3788,-0.3721,-0.368,-0.3629,-0.3591,-0.3552,-0.3519,-0.3476,-0.3442,-0.3405,-0.3367,-0.3325,-0.331,-0.329,-0.3268,-0.3227,-0.3213,-0.3228,-0.3174,-0.3173,-0.3189,-0.3188,-0.3199,-0.3186,-0.3184,-0.3184,-0.3183,0,-0.3766,-0.3722,-0.3667,-0.3606,-0.3588,-0.356,-0.3509,-0.3474,-0.3424,-0.34,-0.3365,-0.3334,-0.3293,-0.3287,-0.3229,-0.3241,-0.3216,-0.3193,-0.3191,-0.3184,-0.3178,-0.318,-0.318,-0.3178,-0.3179,-0.3179,-0.3179,0,-0.3788,-0.3715,-0.3672,-0.3648,-0.3576,-0.3557,-0.3526,-0.3475,-0.3447,-0.3402,-0.3382,-0.3333,-0.3306,-0.3269,-0.3226,-0.3225,-0.3173,-0.3163,-0.3152,-0.3153,-0.3142,-0.3143,-0.3138,-0.3128,-0.3128,-0.3128,-0.3128,0,-0.3779,-0.3747,-0.3681,-0.3655,-0.3618,-0.3571,-0.3536,-0.3501,-0.3457,-0.3423,-0.3386,-0.3355,-0.3301,-0.3263,-0.3229,-0.3186,-0.3175,-0.3154,-0.3146,-0.3157,-0.316,-0.314,-0.314,-0.3127,-0.3127,-0.3128,-0.3128,0,-0.3797,-0.3752,-0.3703,-0.3638,-0.3621,-0.3597,-0.3541,-0.3514,-0.3479,-0.3437,-0.3424,-0.3368,-0.3321,-0.3275,-0.3212,-0.319,-0.3148,-0.3136,-0.3165,-0.316,-0.3151,-0.3153,-0.3132,-0.3127,-0.3122,-0.3122,-0.3122,0,-0.3794,-0.3769,-0.3702,-0.3676,-0.3646,-0.3606,-0.3577,-0.353,-0.35,-0.3441,-0.3421,-0.3372,-0.333,-0.3258,-0.3211,-0.3163,-0.315,-0.3146,-0.3142,-0.3155,-0.3149,-0.3151,-0.3148,-0.3148,-0.3148,-0.3148,-0.3148,0,-0.3794,-0.3773,-0.3732,-0.3683,-0.3648,-0.3607,-0.3565,-0.3547,-0.3491,-0.346,-0.3412,-0.338,-0.3316,-0.3268,-0.3214,-0.3182,-0.3156,-0.315,-0.3145,-0.3156,-0.3173,-0.3163,-0.3169,-0.315,-0.315,-0.315,-0.315,-0.315,-0.3801,-0.3776,-0.3725,-0.368,-0.3643,-0.3605,-0.3576,-0.3537,-0.3496,-0.3441,-0.3416,-0.3368,-0.3318,-0.3243,-0.3211,-0.3173,-0.3165,-0.3158,-0.3156,-0.3155,-0.3157,-0.318,-0.3163,-0.3163,-0.3162,-0.3162,-0.3162,0,-0.3798,-0.3763,-0.3723,-0.3665,-0.3629,-0.3608,-0.356,-0.3532,-0.349,-0.3446,-0.3406,-0.3351,-0.3304,-0.3254,-0.3204,-0.3182,-0.3169,-0.3171,-0.3171,-0.3164,-0.3167,-0.3176,-0.3182,-0.3182,-0.3182,-0.3182,-0.3182,-0.3182,-0.3792,-0.3749,-0.3722,-0.366,-0.3625,-0.3578,-0.3553,-0.3517,-0.3481,-0.3421,-0.3382,-0.335,-0.3303,-0.3249,-0.3205,-0.3191,-0.3174,-0.3179,-0.3162,-0.3166,-0.3164,-0.3163,-0.3171,-0.3176,-0.3176,-0.3163,-0.3163,-0.3162]},{"header":{"parameterUnit":"m.s-1","parameterCategory":1,"la1":30.2991,"la2":30.254,"lo1":-89.0895,"lo2":-89.0444,"dy":0.0017,"dx":0.0017,"nx":28,"ny":28,"refTime":"2024-11-26T09:00:00:Z","depth":0,"parameterNumber":3,"parameterNumberName":"V-component_of_WINDS"},"data":[0,0,0,0,0,0,0,0,0,0,0,0,0,0,0,0,0,0,0,0,0,0,0,0,0,0,0,0,0,0,0,0,0,0,0,0,0,0,0,0,0,0,0,0,0,0,0,0,0,0,0,0,0,0,0,0,0,0,3.4741,3.4742,0,3.4757,3.4757,3.4758,3.4698,3.4696,3.4695,3.4693,3.4708,3.471,3.4712,0,0,0,0,0,0,0,0,0,0,0,0,0,3.4658,3.466,3.4741,3.4742,3.4742,3.4757,3.4757,3.4758,3.4698,3.4696,3.4694,3.4692,3.4707,3.471,3.4712,0,0,0,0,0,0,0,0,0,0,0,0,0,3.4686,3.466,3.4741,3.4714,3.4712,3.4757,3.4757,3.4758,3.4699,3.4696,3.4694,3.4691,3.4707,3.471,3.4713,3.4785,0,0,3.4722,3.4723,0,0,0,0,0,0,0,0,3.4685,3.4689,3.4718,3.4716,3.4714,3.4723,3.4733,3.4767,3.47,3.4704,3.4693,3.469,3.4715,3.4717,3.4726,3.4785,3.4786,3.4722,3.4724,3.4726,3.4726,0,0,0,0,0,0,0,3.4683,3.4688,3.4747,3.4718,3.4716,3.47,3.4702,3.4739,3.4724,3.4703,3.4699,3.4702,3.4713,3.4723,3.4726,3.4786,3.4722,3.4725,3.4727,3.4728,3.4904,3.4907,0,0,0,0,0,0,3.4684,3.4687,3.4747,3.4748,3.4692,3.4704,3.4705,3.4723,3.4723,3.4721,3.4704,3.4699,3.4719,3.4722,3.4726,3.481,3.4725,3.4728,3.473,3.4901,3.4905,3.4908,0,0,0,0,0,0,3.4683,3.469,3.4746,3.4716,3.4722,3.4708,3.4728,3.4724,3.4734,3.4724,3.4721,3.4717,3.4717,3.4722,3.477,3.481,3.473,3.4733,3.4898,3.4902,3.4906,3.4978,0,0,0,0,0,0,3.4681,3.469,3.4718,3.4717,3.4724,3.4791,3.4731,3.4727,3.474,3.4733,3.4735,3.4733,3.4716,3.4766,3.4773,3.4812,3.4735,3.4894,3.49,3.4905,3.4972,3.4985,3.4995,0,0,0,0,0,3.4678,3.4738,3.472,3.4727,3.4759,3.4793,3.4797,3.4776,3.4743,3.477,3.4764,3.4733,3.4804,3.4772,3.4779,3.482,3.4892,3.4898,3.4904,3.4967,3.4982,3.4995,0,0,0,0,0,0,3.4743,3.4737,3.4717,3.4779,3.4787,3.4783,3.4817,3.4793,3.481,3.4803,3.4776,3.4777,3.483,3.483,3.4793,3.4889,3.4842,3.485,3.4887,3.4901,3.4912,3.4911,3.4738,0,0,0,0,0,3.4765,3.4794,3.4787,3.4842,3.4847,3.4832,3.4846,3.4829,3.4836,3.4839,3.4836,3.4845,3.4868,3.4885,3.4906,3.4972,3.4971,3.5004,3.5015,3.5024,3.5032,3.5065,3.508,3.4929,3.4929,3.4928,0,0,3.4809,3.481,3.483,3.4855,3.4859,3.489,3.4835,3.487,3.4891,3.4845,3.489,3.4888,3.4895,3.4952,3.4977,3.4954,3.5073,3.5032,3.504,3.5042,3.5074,3.5088,3.5101,3.4933,3.4932,3.4931,0,0,3.4906,3.491,3.4956,3.4961,3.4969,3.4958,3.4969,3.4969,3.4966,3.5011,3.4976,3.5001,3.5044,3.505,3.5059,3.5157,3.5129,3.5165,3.5224,3.5257,3.5269,3.5279,3.5314,3.5327,3.5172,3.5172,3.5172,0,3.4961,3.5006,3.4982,3.5019,3.503,3.4989,3.5035,3.5041,3.5055,3.5064,3.5037,3.5089,3.5091,3.5148,3.5172,3.5181,3.5192,3.5164,3.5269,3.5279,3.5289,3.5321,3.5335,3.5177,3.5176,3.5176,3.5175,0,3.5072,3.5104,3.514,3.5154,3.517,3.5211,3.5193,3.5211,3.5192,3.5184,3.523,3.5231,3.5252,3.5264,3.5246,3.5319,3.5304,3.5274,3.5226,3.5308,3.5338,3.535,3.5183,3.5181,3.518,3.5179,0,0,3.5212,3.5212,3.5226,3.5231,3.5236,3.526,3.5298,3.5319,3.5335,3.5345,3.5377,3.5413,3.5385,3.5395,3.5377,3.5406,3.5484,3.5372,3.5372,3.5393,3.5563,3.5586,3.5601,3.5465,3.5467,3.5469,3.5563,0,3.5307,3.5373,3.5352,3.5419,3.5447,3.5408,3.5442,3.5448,3.5441,3.5464,3.5456,3.5482,3.5443,3.5448,3.5476,3.5469,3.5517,3.5461,3.5494,3.5495,3.5493,3.5617,3.5641,3.5729,3.5574,3.5576,3.5578,0,3.5427,3.5442,3.5512,3.5511,3.5522,3.5553,3.5569,3.5591,3.5597,3.559,3.5601,3.5577,3.5614,3.5566,3.5617,3.5579,3.5591,3.5589,3.5592,3.5594,3.5541,3.5622,3.5757,3.577,3.5596,3.5595,3.5593,0,3.5521,3.5559,3.5605,3.5612,3.5612,3.5634,3.5635,3.5638,3.5652,3.5666,3.5674,3.5692,3.5702,3.5717,3.5698,3.5665,3.5751,3.5702,3.5746,3.5747,3.5766,3.5765,3.5905,3.5774,3.5774,3.5774,3.5773,0,3.5629,3.5673,3.5648,3.5676,3.5724,3.5699,3.5747,3.5744,3.5747,3.5774,3.5741,3.5767,3.574,3.5763,3.5749,3.5793,3.5797,3.5792,3.5788,3.5795,3.5796,3.5803,3.5796,3.5777,3.5776,3.5776,3.5775,0,3.5743,3.5727,3.5775,3.5771,3.5771,3.5807,3.5803,3.5829,3.5819,3.5854,3.586,3.5845,3.5871,3.5853,3.5879,3.5869,3.5926,3.5913,3.5924,3.5921,3.5966,3.5962,3.6114,3.6133,3.5991,3.5992,3.5993,0,3.5813,3.5846,3.5845,3.5861,3.5864,3.589,3.5903,3.5879,3.5894,3.5903,3.5928,3.595,3.5967,3.6009,3.6,3.602,3.6007,3.6059,3.6009,3.6016,3.6007,3.6006,3.6008,3.6069,3.6071,3.6072,3.6073,0,3.5939,3.593,3.595,3.5968,3.5984,3.5997,3.6007,3.6022,3.5998,3.6016,3.6042,3.6055,3.608,3.6103,3.6119,3.6119,3.6092,3.6089,3.61,3.6108,3.6113,3.611,3.5952,3.6085,3.6084,3.6083,3.6083,3.6082,3.6033,3.606,3.6064,3.6087,3.6092,3.6102,3.6126,3.6119,3.614,3.6159,3.6144,3.6174,3.6178,3.6196,3.62,3.6223,3.6201,3.6218,3.6222,3.6226,3.6232,3.6109,3.6226,3.6225,3.6225,3.6225,3.6224,0,3.6157,3.6157,3.6179,3.6194,3.6212,3.6185,3.6194,3.6211,3.6239,3.6244,3.6261,3.629,3.6312,3.6305,3.6324,3.6343,3.6332,3.6349,3.6348,3.6348,3.625,3.6239,3.6358,3.6358,3.6358,3.6358,3.6358,3.6358,3.6224,3.6268,3.6259,3.6305,3.6304,3.6334,3.6342,3.635,3.6355,3.6388,3.6406,3.6401,3.6401,3.642,3.6438,3.6435,3.6444,3.6466,3.6459,3.6368,3.6355,3.6342,3.6331,3.6468,3.6468,3.6554,3.6555,3.6556]}]]